Time,TemperatureF,DewpointF,PressureIn,WindDirection,WindDirectionDegrees,WindSpeedMPH,WindSpeedGustMPH,Humidity,HourlyPrecipIn,Conditions,Clouds,dailyrainin,SoftwareType,DateUTC
2013-02-10 00:00:00,34.0,31.1,28.67,NE,35,6.3,9.2,89,0.00,,-RA,0.00,VWS V14.00,2013-02-10 06:00:00,
2013-02-10 00:05:00,34.0,31.4,28.67,NNE,13,5.4,9.6,90,0.00,,-RA,0.00,VWS V14.00,2013-02-10 06:05:00,
2013-02-10 00:10:00,34.0,31.4,28.67,ENE,63,4.9,9.6,90,0.00,,-RA,0.00,VWS V14.00,2013-02-10 06:10:00,
2013-02-10 00:15:00,34.0,31.6,28.67,NE,35,4.9,9.6,91,0.00,,-RA,0.00,VWS V14.00,2013-02-10 06:15:00,
2013-02-10 00:20:00,34.0,31.6,28.67,NE,53,6.7,9.6,91,0.00,,-RA,0.00,VWS V14.00,2013-02-10 06:20:00,
2013-02-10 00:25:00,34.2,31.8,28.67,NE,37,4.0,8.1,91,0.00,,-RA,0.00,VWS V14.00,2013-02-10 06:25:00,
2013-02-10 00:30:00,34.2,31.8,28.67,NE,39,5.4,8.3,91,0.00,,-RA,0.00,VWS V14.00,2013-02-10 06:30:00,
2013-02-10 00:35:00,34.3,32.3,28.67,NE,44,8.3,8.3,92,0.00,,-RA,0.00,VWS V14.00,2013-02-10 06:35:00,
2013-02-10 00:40:00,34.3,32.3,28.67,NNE,15,4.9,8.3,92,0.00,,-RA,0.00,VWS V14.00,2013-02-10 06:40:00,
2013-02-10 00:45:00,34.3,32.3,28.67,ENE,63,5.4,9.2,92,0.00,,-RA,0.00,VWS V14.00,2013-02-10 06:45:00,
2013-02-10 00:50:00,34.3,32.3,28.67,North,9,7.6,9.2,92,0.00,,-RA,0.00,VWS V14.00,2013-02-10 06:50:00,
2013-02-10 00:55:00,34.3,32.3,28.67,NE,49,6.3,8.7,92,0.00,,-RA,0.00,VWS V14.00,2013-02-10 06:55:00,
2013-02-10 01:00:00,34.3,32.5,28.67,NE,34,3.6,8.7,93,0.00,,OVC065,0.00,VWS V14.00,2013-02-10 07:00:00,
2013-02-10 01:05:00,34.3,32.5,28.67,NNE,29,8.1,8.1,93,0.00,,OVC065,0.00,VWS V14.00,2013-02-10 07:05:00,
2013-02-10 01:10:00,34.5,32.7,28.64,NE,36,6.3,8.3,93,0.00,,OVC065,0.00,VWS V14.00,2013-02-10 07:10:00,
2013-02-10 01:15:00,34.5,32.7,28.64,NNE,32,8.1,9.2,93,0.00,,OVC065,0.00,VWS V14.00,2013-02-10 07:15:00,
2013-02-10 01:20:00,34.3,32.5,28.64,ENE,59,4.0,10.1,93,0.00,,OVC065,0.00,VWS V14.00,2013-02-10 07:20:00,
2013-02-10 01:25:00,34.3,32.5,28.64,NE,34,6.3,9.2,93,0.00,,OVC060,0.00,VWS V14.00,2013-02-10 07:25:00,
2013-02-10 01:30:00,34.3,32.5,28.64,ENE,57,2.7,2.7,93,0.00,,OVC060,0.00,VWS V14.00,2013-02-10 07:30:00,
2013-02-10 01:35:00,34.3,32.5,28.64,North,11,2.7,8.7,93,0.00,,OVC060,0.00,VWS V14.00,2013-02-10 07:35:00,
2013-02-10 01:40:00,34.5,32.7,28.64,North,9,2.7,8.7,93,0.00,,OVC060,0.00,VWS V14.00,2013-02-10 07:40:00,
2013-02-10 01:45:00,34.5,32.7,28.67,NE,44,7.2,11.9,93,0.00,,OVC060,0.00,VWS V14.00,2013-02-10 07:45:00,
2013-02-10 01:50:00,34.5,32.7,28.67,NNE,24,3.1,11.9,93,0.00,,OVC060,0.00,VWS V14.00,2013-02-10 07:50:00,
2013-02-10 01:55:00,34.5,32.7,28.67,NE,36,6.3,8.7,93,0.00,,OVC060,0.00,VWS V14.00,2013-02-10 07:55:00,
2013-02-10 02:00:00,34.5,32.7,28.67,NNE,33,9.6,9.6,93,0.00,,OVC012,0.00,VWS V14.00,2013-02-10 08:00:00,
2013-02-10 02:05:00,34.5,32.7,28.67,NNE,31,5.8,9.6,93,0.00,,OVC012,0.00,VWS V14.00,2013-02-10 08:05:00,
2013-02-10 02:10:00,34.5,33.0,28.64,NNE,27,5.4,6.3,94,0.00,,OVC012,0.00,VWS V14.00,2013-02-10 08:10:00,
2013-02-10 02:15:00,34.5,33.0,28.64,NNE,17,6.7,8.7,94,0.00,,OVC012,0.00,VWS V14.00,2013-02-10 08:15:00,
2013-02-10 02:20:00,34.5,33.0,28.64,NNE,26,3.6,5.4,94,0.00,,OVC012,0.00,VWS V14.00,2013-02-10 08:20:00,
2013-02-10 02:25:00,34.5,33.0,28.64,NNE,32,6.3,6.3,94,0.00,,OVC012,0.00,VWS V14.00,2013-02-10 08:25:00,
2013-02-10 02:30:00,34.5,33.0,28.64,NNE,12,4.0,8.3,94,0.00,,OVC012,0.00,VWS V14.00,2013-02-10 08:30:00,
2013-02-10 02:35:00,34.7,33.2,28.64,NE,36,3.1,6.3,94,0.00,,OVC012,0.00,VWS V14.00,2013-02-10 08:35:00,
2013-02-10 02:40:00,34.7,33.2,28.64,NNE,25,4.0,6.3,94,0.00,,OVC012,0.00,VWS V14.00,2013-02-10 08:40:00,
2013-02-10 02:45:00,34.9,33.3,28.64,NNE,26,3.1,6.3,94,0.00,,OVC012,0.00,VWS V14.00,2013-02-10 08:45:00,
2013-02-10 02:50:00,34.9,33.3,28.64,NE,39,5.4,8.1,94,0.00,,OVC012,0.00,VWS V14.00,2013-02-10 08:50:00,
2013-02-10 02:55:00,34.9,33.3,28.61,NE,37,4.0,10.5,94,0.00,,OVC012,0.00,VWS V14.00,2013-02-10 08:55:00,
2013-02-10 03:00:00,35.1,33.5,28.61,NNE,25,4.0,10.5,94,0.00,,,0.00,VWS V14.00,2013-02-10 09:00:00,
2013-02-10 03:05:00,35.1,33.8,28.61,NE,45,5.4,8.3,95,0.00,,,0.00,VWS V14.00,2013-02-10 09:05:00,
2013-02-10 03:10:00,35.2,34.0,28.61,NNE,25,8.1,8.7,95,0.00,,,0.00,VWS V14.00,2013-02-10 09:10:00,
2013-02-10 03:15:00,35.2,34.0,28.59,NNE,16,5.8,11.4,95,0.00,,,0.00,VWS V14.00,2013-02-10 09:15:00,
2013-02-10 03:20:00,35.4,34.1,28.59,NE,35,5.4,11.4,95,0.00,,,0.00,VWS V14.00,2013-02-10 09:20:00,
2013-02-10 03:25:00,35.4,34.1,28.59,North,11,7.6,8.7,95,0.00,,-RA,0.00,VWS V14.00,2013-02-10 09:25:00,
2013-02-10 03:30:00,35.4,34.1,28.56,ENE,58,6.3,8.7,95,0.00,,-RA,0.00,VWS V14.00,2013-02-10 09:30:00,
2013-02-10 03:35:00,35.6,34.3,28.56,ENE,69,5.8,12.3,95,0.00,,-RA,0.00,VWS V14.00,2013-02-10 09:35:00,
2013-02-10 03:40:00,35.6,34.3,28.59,NE,41,5.4,12.3,95,0.00,,-RA,0.00,VWS V14.00,2013-02-10 09:40:00,
2013-02-10 03:45:00,35.8,34.5,28.59,NE,53,5.4,11.0,95,0.00,,-RA,0.00,VWS V14.00,2013-02-10 09:45:00,
2013-02-10 03:50:00,35.8,34.5,28.59,NNE,26,6.3,11.0,95,0.00,,,0.00,VWS V14.00,2013-02-10 09:50:00,
2013-02-10 03:55:00,35.8,34.5,28.59,ENE,68,6.3,11.4,95,0.00,,,0.00,VWS V14.00,2013-02-10 09:55:00,
2013-02-10 04:00:00,36.0,34.7,28.56,NNE,22,6.3,11.4,95,0.00,,,0.00,VWS V14.00,2013-02-10 10:00:00,
2013-02-10 04:05:00,35.8,34.5,28.56,NE,43,8.1,9.2,95,0.00,,,0.00,VWS V14.00,2013-02-10 10:05:00,
2013-02-10 04:10:00,36.0,34.7,28.56,NNE,32,6.3,9.6,95,0.00,,,0.00,VWS V14.00,2013-02-10 10:10:00,
2013-02-10 04:15:00,36.0,34.7,28.53,NE,44,10.1,10.1,95,0.00,,,0.00,VWS V14.00,2013-02-10 10:15:00,
2013-02-10 04:20:00,36.0,34.7,28.53,NNE,21,5.4,10.1,95,0.00,,,0.00,VWS V14.00,2013-02-10 10:20:00,
2013-02-10 04:25:00,36.1,34.8,28.53,NNE,21,5.8,8.3,95,0.00,,,0.00,VWS V14.00,2013-02-10 10:25:00,
2013-02-10 04:30:00,36.1,35.1,28.53,NNE,31,6.3,8.3,96,0.00,,,0.00,VWS V14.00,2013-02-10 10:30:00,
2013-02-10 04:35:00,36.3,35.3,28.53,North,9,5.4,8.7,96,0.00,,,0.00,VWS V14.00,2013-02-10 10:35:00,
2013-02-10 04:40:00,36.3,35.3,28.53,NNE,21,5.8,8.7,96,0.00,,,0.00,VWS V14.00,2013-02-10 10:40:00,
2013-02-10 04:45:00,36.5,35.5,28.50,NE,56,8.1,8.3,96,0.00,,,0.00,VWS V14.00,2013-02-10 10:45:00,
2013-02-10 04:50:00,36.7,35.7,28.50,NNE,22,5.4,12.3,96,0.00,,,0.00,VWS V14.00,2013-02-10 10:50:00,
2013-02-10 04:55:00,36.7,35.7,28.50,NE,37,6.3,9.6,96,0.00,,,0.00,VWS V14.00,2013-02-10 10:55:00,
2013-02-10 05:00:00,36.7,35.7,28.47,North,7,7.6,12.8,96,0.00,,,0.00,VWS V14.00,2013-02-10 11:00:00,
2013-02-10 05:05:00,36.7,35.7,28.47,NNE,31,8.3,10.1,96,0.00,,,0.00,VWS V14.00,2013-02-10 11:05:00,
2013-02-10 05:10:00,36.9,35.8,28.47,NNE,19,6.3,10.5,96,0.00,,,0.00,VWS V14.00,2013-02-10 11:10:00,
2013-02-10 05:15:00,36.9,35.8,28.47,NE,39,6.3,8.3,96,0.00,,,0.00,VWS V14.00,2013-02-10 11:15:00,
2013-02-10 05:20:00,36.9,35.8,28.47,NE,51,5.8,9.2,96,0.00,,,0.00,VWS V14.00,2013-02-10 11:20:00,
2013-02-10 05:25:00,36.9,35.8,28.47,NE,46,7.6,11.0,96,0.00,,,0.00,VWS V14.00,2013-02-10 11:25:00,
2013-02-10 05:30:00,36.9,35.8,28.47,NE,53,5.4,11.0,96,0.00,,,0.00,VWS V14.00,2013-02-10 11:30:00,
2013-02-10 05:35:00,37.0,36.0,28.47,NE,37,5.8,10.1,96,0.00,,,0.00,VWS V14.00,2013-02-10 11:35:00,
2013-02-10 05:40:00,37.0,36.0,28.47,NE,40,5.8,10.1,96,0.00,,,0.00,VWS V14.00,2013-02-10 11:40:00,
2013-02-10 05:45:00,37.0,36.0,28.47,NNE,22,5.4,6.3,96,0.00,,,0.00,VWS V14.00,2013-02-10 11:45:00,
2013-02-10 05:50:00,37.0,36.0,28.47,NNE,19,6.3,9.2,96,0.00,,,0.00,VWS V14.00,2013-02-10 11:50:00,
2013-02-10 05:55:00,37.2,36.2,28.44,NE,44,8.1,10.5,96,0.00,,,0.00,VWS V14.00,2013-02-10 11:55:00,
2013-02-10 06:00:00,37.4,36.4,28.44,NNE,19,10.5,12.3,96,0.00,,,0.00,VWS V14.00,2013-02-10 12:00:00,
2013-02-10 06:05:00,37.4,36.4,28.44,NE,36,7.6,10.5,96,0.00,,-RA,0.00,VWS V14.00,2013-02-10 12:05:00,
2013-02-10 06:10:00,37.6,36.5,28.41,NNE,32,7.6,10.5,96,0.00,,-RA,0.00,VWS V14.00,2013-02-10 12:10:00,
2013-02-10 06:15:00,37.6,36.5,28.41,NNE,20,10.1,13.2,96,0.00,,-RA,0.00,VWS V14.00,2013-02-10 12:15:00,
2013-02-10 06:20:00,37.6,36.5,28.41,NE,43,8.1,13.2,96,0.00,,-RA,0.00,VWS V14.00,2013-02-10 12:20:00,
2013-02-10 06:25:00,37.6,36.5,28.41,NE,39,8.3,11.0,96,0.00,,-RA,0.00,VWS V14.00,2013-02-10 12:25:00,
2013-02-10 06:30:00,37.9,36.9,28.44,NE,46,8.7,13.6,96,0.00,,-RA,0.00,VWS V14.00,2013-02-10 12:30:00,
2013-02-10 06:35:00,37.9,36.9,28.44,NNE,28,8.3,10.5,96,0.00,,-RA,0.00,VWS V14.00,2013-02-10 12:35:00,
2013-02-10 06:40:00,37.9,36.9,28.44,NE,43,6.7,10.5,96,0.00,,-RA,0.00,VWS V14.00,2013-02-10 12:40:00,
2013-02-10 06:45:00,38.1,37.1,28.44,NE,41,5.4,10.5,96,0.00,,-RA,0.00,VWS V14.00,2013-02-10 12:45:00,
2013-02-10 06:50:00,38.1,37.1,28.44,ENE,71,5.4,10.5,96,0.00,,-RA,0.00,VWS V14.00,2013-02-10 12:50:00,
2013-02-10 06:55:00,38.5,37.4,28.41,NE,39,6.3,9.2,96,0.00,,-RA,0.00,VWS V14.00,2013-02-10 12:55:00,
2013-02-10 07:00:00,38.5,37.4,28.41,NE,52,8.3,10.5,96,0.00,,-RA,0.00,VWS V14.00,2013-02-10 13:00:00,
2013-02-10 07:05:00,38.5,37.4,28.41,NNE,27,6.3,11.0,96,0.00,,-RA,0.00,VWS V14.00,2013-02-10 13:05:00,
2013-02-10 07:10:00,38.5,37.4,28.41,NNE,18,5.4,11.0,96,0.00,,-RA,0.00,VWS V14.00,2013-02-10 13:10:00,
2013-02-10 07:15:00,38.5,37.4,28.38,ENE,77,4.9,11.4,96,0.00,,-RA,0.00,VWS V14.00,2013-02-10 13:15:00,
2013-02-10 07:20:00,38.7,37.6,28.38,NNE,31,7.6,11.4,96,0.00,,-RA,0.00,VWS V14.00,2013-02-10 13:20:00,
2013-02-10 07:25:00,38.7,37.6,28.38,NNE,32,8.1,11.0,96,0.00,,-RA,0.00,VWS V14.00,2013-02-10 13:25:00,
2013-02-10 07:30:00,38.8,37.8,28.38,NNE,26,8.7,11.0,96,0.00,,-RA,0.00,VWS V14.00,2013-02-10 13:30:00,
2013-02-10 07:35:00,38.8,37.8,28.38,NE,36,6.3,10.1,96,0.00,,-RA,0.00,VWS V14.00,2013-02-10 13:35:00,
2013-02-10 07:40:00,39.0,38.0,28.35,NNE,23,6.3,11.0,96,0.00,,-RA,0.00,VWS V14.00,2013-02-10 13:40:00,
2013-02-10 07:45:00,39.0,38.0,28.35,North,4,3.1,10.5,96,0.00,,-RA,0.00,VWS V14.00,2013-02-10 13:45:00,
2013-02-10 07:50:00,39.2,38.2,28.35,NE,49,7.6,11.0,96,0.00,,-RA,0.00,VWS V14.00,2013-02-10 13:50:00,
2013-02-10 07:55:00,39.2,38.2,28.35,NE,37,8.3,11.4,96,0.00,,-RA,0.00,VWS V14.00,2013-02-10 13:55:00,
2013-02-10 08:00:00,39.2,38.2,28.35,ENE,78,6.3,11.4,96,0.00,,OVC004,0.00,VWS V14.00,2013-02-10 14:00:00,
2013-02-10 08:05:00,39.2,38.2,28.35,NNE,22,7.6,8.3,96,0.00,,OVC004,0.00,VWS V14.00,2013-02-10 14:05:00,
2013-02-10 08:10:00,39.4,38.3,28.35,ENE,69,6.3,10.1,96,0.00,,OVC004,0.00,VWS V14.00,2013-02-10 14:10:00,
2013-02-10 08:15:00,39.4,38.3,28.35,NE,36,4.0,10.5,96,0.00,,OVC004,0.00,VWS V14.00,2013-02-10 14:15:00,
2013-02-10 08:20:00,39.4,38.3,28.35,ENE,61,4.0,10.5,96,0.00,,OVC004,0.00,VWS V14.00,2013-02-10 14:20:00,
2013-02-10 08:25:00,39.4,38.3,28.35,NE,56,8.3,10.5,96,0.00,,OVC004,0.00,VWS V14.00,2013-02-10 14:25:00,
2013-02-10 08:30:00,39.6,38.5,28.35,NE,45,7.6,11.0,96,0.00,,OVC005,0.00,VWS V14.00,2013-02-10 14:30:00,
2013-02-10 08:35:00,39.7,38.7,28.35,ENE,78,4.0,12.3,96,0.00,,OVC005,0.00,VWS V14.00,2013-02-10 14:35:00,
2013-02-10 08:40:00,39.7,38.7,28.35,NNE,33,5.8,12.3,96,0.00,,OVC005,0.00,VWS V14.00,2013-02-10 14:40:00,
2013-02-10 08:45:00,39.9,38.9,28.35,East,101,7.6,12.8,96,0.00,,OVC005,0.00,VWS V14.00,2013-02-10 14:45:00,
2013-02-10 08:50:00,39.9,38.9,28.35,NNE,32,5.8,12.8,96,0.00,,OVC005,0.00,VWS V14.00,2013-02-10 14:50:00,
2013-02-10 08:55:00,40.3,39.2,28.35,East,86,4.0,9.6,96,0.00,,OVC005,0.00,VWS V14.00,2013-02-10 14:55:00,
2013-02-10 09:00:00,40.3,39.2,28.32,East,89,5.4,10.5,96,0.00,,OVC005,0.00,VWS V14.00,2013-02-10 15:00:00,
2013-02-10 09:05:00,40.3,39.2,28.32,NE,37,5.4,7.6,96,0.00,,OVC005,0.00,VWS V14.00,2013-02-10 15:05:00,
2013-02-10 09:10:00,40.5,39.4,28.32,ENE,76,5.8,8.7,96,0.00,,OVC005,0.00,VWS V14.00,2013-02-10 15:10:00,
2013-02-10 09:15:00,40.6,39.6,28.32,ENE,69,4.9,7.6,96,0.00,,,0.00,VWS V14.00,2013-02-10 15:15:00,
2013-02-10 09:20:00,40.8,39.8,28.32,East,81,3.6,10.5,96,0.00,,,0.00,VWS V14.00,2013-02-10 15:20:00,
2013-02-10 09:25:00,41.0,39.7,28.32,ENE,64,3.1,8.3,95,0.00,,,0.00,VWS V14.00,2013-02-10 15:25:00,
2013-02-10 09:30:00,41.2,39.9,28.32,ENE,70,8.7,10.1,95,0.00,,,0.00,VWS V14.00,2013-02-10 15:30:00,
2013-02-10 09:35:00,41.2,39.9,28.32,ENE,72,4.0,8.7,95,0.00,,,0.00,VWS V14.00,2013-02-10 15:35:00,
2013-02-10 09:40:00,41.5,40.2,28.32,East,92,5.8,9.2,95,0.00,,,0.00,VWS V14.00,2013-02-10 15:40:00,
2013-02-10 09:45:00,41.7,40.4,28.32,ENE,59,2.7,11.9,95,0.00,,,0.00,VWS V14.00,2013-02-10 15:45:00,
2013-02-10 09:50:00,41.7,40.4,28.32,NE,44,11.0,11.9,95,0.00,,,0.00,VWS V14.00,2013-02-10 15:50:00,
2013-02-10 09:55:00,41.9,40.6,28.29,NNE,21,5.8,7.6,95,0.00,,,0.00,VWS V14.00,2013-02-10 15:55:00,
2013-02-10 10:00:00,42.1,40.8,28.29,ENE,58,3.1,7.6,95,0.00,,,0.00,VWS V14.00,2013-02-10 16:00:00,
2013-02-10 10:05:00,42.1,40.8,28.29,ENE,59,6.3,12.3,95,0.00,,,0.00,VWS V14.00,2013-02-10 16:05:00,
2013-02-10 10:10:00,42.6,41.3,28.29,East,89,4.0,12.3,95,0.00,,,0.00,VWS V14.00,2013-02-10 16:10:00,
2013-02-10 10:15:00,42.8,41.5,28.29,NE,54,8.1,9.2,95,0.00,,,0.00,VWS V14.00,2013-02-10 16:15:00,
2013-02-10 10:20:00,42.8,41.5,28.29,East,100,5.4,10.5,95,0.00,,,0.00,VWS V14.00,2013-02-10 16:20:00,
2013-02-10 10:25:00,43.0,41.7,28.29,ENE,73,2.7,9.2,95,0.00,,,0.00,VWS V14.00,2013-02-10 16:25:00,
2013-02-10 10:30:00,43.2,41.8,28.29,ENE,76,4.0,9.2,95,0.00,,,0.00,VWS V14.00,2013-02-10 16:30:00,
2013-02-10 10:35:00,43.0,41.7,28.29,ENE,66,3.1,7.6,95,0.00,,,0.00,VWS V14.00,2013-02-10 16:35:00,
2013-02-10 10:40:00,43.3,42.0,28.26,NNE,31,3.1,7.6,95,0.00,,,0.00,VWS V14.00,2013-02-10 16:40:00,
2013-02-10 10:45:00,43.7,42.4,28.26,NE,50,3.6,7.2,95,0.00,,,0.00,VWS V14.00,2013-02-10 16:45:00,
2013-02-10 10:50:00,43.7,42.4,28.26,ESE,102,3.6,7.2,95,0.00,,,0.00,VWS V14.00,2013-02-10 16:50:00,
2013-02-10 10:55:00,44.1,42.7,28.26,ENE,67,3.1,7.6,95,0.00,,,0.00,VWS V14.00,2013-02-10 16:55:00,
2013-02-10 11:00:00,45.1,43.5,28.26,NE,40,3.1,8.1,94,0.00,,,0.00,VWS V14.00,2013-02-10 17:00:00,
2013-02-10 11:05:00,45.5,43.9,28.26,NE,51,2.7,8.3,94,0.00,,,0.00,VWS V14.00,2013-02-10 17:05:00,
2013-02-10 11:10:00,45.1,43.5,28.26,NE,41,3.1,9.6,94,0.00,,,0.00,VWS V14.00,2013-02-10 17:10:00,
2013-02-10 11:15:00,46.2,44.6,28.23,NNE,29,4.0,6.3,94,0.00,,,0.00,VWS V14.00,2013-02-10 17:15:00,
2013-02-10 11:20:00,46.6,45.0,28.23,NE,49,3.6,8.7,94,0.00,,,0.00,VWS V14.00,2013-02-10 17:20:00,
2013-02-10 11:25:00,47.1,45.5,28.23,NE,51,0.0,6.3,94,0.00,,,0.00,VWS V14.00,2013-02-10 17:25:00,
2013-02-10 11:30:00,46.4,44.8,28.23,ENE,75,3.6,8.7,94,0.00,,,0.00,VWS V14.00,2013-02-10 17:30:00,
2013-02-10 11:35:00,46.6,44.7,28.23,ENE,64,5.8,8.3,93,0.00,,,0.00,VWS V14.00,2013-02-10 17:35:00,
2013-02-10 11:40:00,47.1,45.2,28.23,ENE,69,4.0,9.6,93,0.00,,,0.00,VWS V14.00,2013-02-10 17:40:00,
2013-02-10 11:45:00,47.3,45.4,28.23,NE,54,8.1,8.1,93,0.00,,OVC029,0.00,VWS V14.00,2013-02-10 17:45:00,
2013-02-10 11:50:00,46.9,45.0,28.23,ENE,60,3.1,9.2,93,0.00,,OVC029,0.00,VWS V14.00,2013-02-10 17:50:00,
2013-02-10 11:55:00,48.7,46.8,28.23,East,85,3.1,6.3,93,0.00,,OVC034,0.00,VWS V14.00,2013-02-10 17:55:00,
2013-02-10 12:00:00,50.0,48.1,28.20,East,90,4.0,8.3,93,0.00,,BKN025,0.00,VWS V14.00,2013-02-10 18:00:00,
2013-02-10 12:05:00,50.7,48.8,28.20,SE,125,5.4,7.6,93,0.00,,BKN025,0.00,VWS V14.00,2013-02-10 18:05:00,
2013-02-10 12:10:00,51.4,49.5,28.20,East,90,4.9,4.9,93,0.00,,BKN025,0.00,VWS V14.00,2013-02-10 18:10:00,
2013-02-10 12:15:00,49.8,47.9,28.20,East,97,8.3,11.9,93,0.00,,BKN042,0.00,VWS V14.00,2013-02-10 18:15:00,
2013-02-10 12:20:00,50.4,48.1,28.20,ENE,68,6.3,6.3,92,0.00,,BKN042,0.00,VWS V14.00,2013-02-10 18:20:00,
2013-02-10 12:25:00,50.2,44.9,28.17,ESE,108,5.4,12.3,82,0.00,,BKN042,0.00,VWS V14.00,2013-02-10 18:25:00,
2013-02-10 12:30:00,50.9,41.1,28.17,NE,47,7.6,7.6,69,0.00,,BKN042,0.00,VWS V14.00,2013-02-10 18:30:00,
2013-02-10 12:35:00,53.2,37.5,28.17,ESE,105,8.3,12.3,55,0.00,,BKN042,0.00,VWS V14.00,2013-02-10 18:35:00,
2013-02-10 12:40:00,51.4,33.4,28.17,East,88,4.0,12.3,50,0.00,,BKN042,0.00,VWS V14.00,2013-02-10 18:40:00,
2013-02-10 12:45:00,51.1,32.1,28.17,ESE,105,8.7,12.3,48,0.00,,BKN042,0.00,VWS V14.00,2013-02-10 18:45:00,
2013-02-10 12:50:00,51.3,31.7,28.17,ENE,77,4.0,12.3,47,0.00,,BKN042,0.00,VWS V14.00,2013-02-10 18:50:00,
2013-02-10 12:55:00,51.3,30.1,28.17,East,100,4.0,8.7,44,0.00,,BKN042,0.00,VWS V14.00,2013-02-10 18:55:00,
2013-02-10 13:00:00,50.7,29.6,28.17,SE,129,6.7,8.7,44,0.00,,BKN055,0.00,VWS V14.00,2013-02-10 19:00:00,
2013-02-10 13:05:00,50.4,30.4,28.17,SE,133,4.0,8.1,46,0.00,,BKN055,0.00,VWS V14.00,2013-02-10 19:05:00,
2013-02-10 13:10:00,50.2,29.1,28.14,ESE,117,6.3,8.3,44,0.00,,BKN055,0.00,VWS V14.00,2013-02-10 19:10:00,
2013-02-10 13:15:00,49.8,28.2,28.14,SE,128,5.8,8.7,43,0.00,,BKN055,0.00,VWS V14.00,2013-02-10 19:15:00,
2013-02-10 13:20:00,49.8,27.7,28.14,ESE,123,8.7,11.0,42,0.00,,BKN055,0.00,VWS V14.00,2013-02-10 19:20:00,
2013-02-10 13:25:00,51.3,25.9,28.14,SE,125,14.5,14.5,37,0.00,,BKN055,0.00,VWS V14.00,2013-02-10 19:25:00,
2013-02-10 13:30:00,52.9,23.9,28.14,SE,131,8.7,15.0,32,0.00,,BKN055,0.00,VWS V14.00,2013-02-10 19:30:00,
2013-02-10 13:35:00,52.9,23.1,28.14,SE,141,5.4,14.1,31,0.00,,BKN055,0.00,VWS V14.00,2013-02-10 19:35:00,
2013-02-10 13:40:00,51.4,22.6,28.14,ESE,112,8.7,15.4,32,0.00,,BKN055,0.00,VWS V14.00,2013-02-10 19:40:00,
2013-02-10 13:45:00,52.2,20.9,28.14,SE,144,13.6,17.4,29,0.00,,BKN055,0.00,VWS V14.00,2013-02-10 19:45:00,
2013-02-10 13:50:00,51.8,19.8,28.14,SSE,151,15.4,15.4,28,0.00,,BKN055,0.00,VWS V14.00,2013-02-10 19:50:00,
2013-02-10 13:55:00,51.1,18.3,28.14,SSE,154,15.9,22.8,27,0.00,,BKN055,0.00,VWS V14.00,2013-02-10 19:55:00,
2013-02-10 14:00:00,50.4,17.7,28.14,SE,145,15.0,24.2,27,0.00,,OVC060,0.00,VWS V14.00,2013-02-10 20:00:00,
2013-02-10 14:05:00,50.2,17.5,28.14,SE,142,10.1,21.9,27,0.00,,OVC060,0.00,VWS V14.00,2013-02-10 20:05:00,
2013-02-10 14:10:00,49.5,17.7,28.17,SE,128,8.7,21.9,28,0.00,,OVC060,0.00,VWS V14.00,2013-02-10 20:10:00,
2013-02-10 14:15:00,48.9,18.1,28.17,SSE,153,14.1,14.5,29,0.00,,OVC060,0.00,VWS V14.00,2013-02-10 20:15:00,
2013-02-10 14:20:00,48.2,16.6,28.17,SSE,162,21.9,22.8,28,0.00,,OVC060,0.00,VWS V14.00,2013-02-10 20:20:00,
2013-02-10 14:25:00,48.7,17.1,28.17,ESE,119,10.5,23.3,28,0.00,,OVC060,0.00,VWS V14.00,2013-02-10 20:25:00,
2013-02-10 14:30:00,48.7,17.1,28.17,ESE,109,8.7,23.3,28,0.00,,OVC060,0.00,VWS V14.00,2013-02-10 20:30:00,
2013-02-10 14:35:00,48.2,16.6,28.17,SE,133,17.4,26.6,28,0.00,,OVC060,0.00,VWS V14.00,2013-02-10 20:35:00,
2013-02-10 14:40:00,47.3,15.9,28.17,ESE,117,24.2,24.2,28,0.00,,OVC060,0.00,VWS V14.00,2013-02-10 20:40:00,
2013-02-10 14:45:00,46.6,16.0,28.17,SE,145,12.3,25.5,29,0.00,,OVC060,0.00,VWS V14.00,2013-02-10 20:45:00,
2013-02-10 14:50:00,46.0,16.4,28.17,SSE,166,13.6,25.5,30,0.00,,OVC060,0.00,VWS V14.00,2013-02-10 20:50:00,
2013-02-10 14:55:00,45.5,15.9,28.17,SE,140,12.3,24.2,30,0.00,,OVC060,0.00,VWS V14.00,2013-02-10 20:55:00,
2013-02-10 15:00:00,45.3,15.7,28.17,SSE,156,8.3,24.2,30,0.00,,OVC048,0.00,VWS V14.00,2013-02-10 21:00:00,
2013-02-10 15:05:00,45.0,14.6,28.17,SE,144,11.9,19.2,29,0.00,,OVC048,0.00,VWS V14.00,2013-02-10 21:05:00,
2013-02-10 15:10:00,44.6,14.3,28.17,SE,136,10.5,19.7,29,0.00,,OVC048,0.00,VWS V14.00,2013-02-10 21:10:00,
2013-02-10 15:15:00,43.9,13.7,28.17,SSE,161,17.4,26.6,29,0.00,,OVC048,0.00,VWS V14.00,2013-02-10 21:15:00,
2013-02-10 15:20:00,43.7,13.5,28.17,SE,139,8.7,26.6,29,0.00,,OVC048,0.00,VWS V14.00,2013-02-10 21:20:00,
2013-02-10 15:25:00,43.3,14.0,28.20,SE,146,4.0,17.9,30,0.00,,OVC048,0.00,VWS V14.00,2013-02-10 21:25:00,
2013-02-10 15:30:00,42.8,14.3,28.20,SE,142,13.2,18.3,31,0.00,,OVC048,0.00,VWS V14.00,2013-02-10 21:30:00,
2013-02-10 15:35:00,42.4,14.7,28.20,SE,141,10.5,17.9,32,0.00,,OVC048,0.00,VWS V14.00,2013-02-10 21:35:00,
2013-02-10 15:40:00,42.3,14.5,28.20,SE,138,15.4,18.8,32,0.00,,OVC048,0.00,VWS V14.00,2013-02-10 21:40:00,
2013-02-10 15:45:00,42.1,15.1,28.20,SE,143,12.3,15.0,33,0.00,,OVC048,0.00,VWS V14.00,2013-02-10 21:45:00,
2013-02-10 15:50:00,41.7,15.4,28.20,SE,140,6.3,15.0,34,0.00,,OVC048,0.00,VWS V14.00,2013-02-10 21:50:00,
2013-02-10 15:55:00,41.5,15.3,28.20,SE,139,11.0,15.0,34,0.00,,OVC048,0.00,VWS V14.00,2013-02-10 21:55:00,
2013-02-10 16:00:00,41.5,15.9,28.20,SE,144,12.3,17.4,35,0.00,,OVC048,0.00,VWS V14.00,2013-02-10 22:00:00,
2013-02-10 16:05:00,40.8,17.8,28.20,SSE,156,16.8,26.2,39,0.00,,OVC037,0.00,VWS V14.00,2013-02-10 22:05:00,
2013-02-10 16:10:00,39.9,18.1,28.20,SE,135,8.1,26.2,41,0.00,,OVC037,0.00,VWS V14.00,2013-02-10 22:10:00,
2013-02-10 16:15:00,39.9,18.7,28.20,SSE,156,8.1,19.7,42,0.00,,OVC037,0.00,VWS V14.00,2013-02-10 22:15:00,
2013-02-10 16:20:00,39.9,18.7,28.20,SSE,147,13.2,19.7,42,0.00,,OVC037,0.00,VWS V14.00,2013-02-10 22:20:00,
2013-02-10 16:25:00,39.9,18.7,28.20,SE,131,14.5,14.5,42,0.00,,OVC037,0.00,VWS V14.00,2013-02-10 22:25:00,
2013-02-10 16:30:00,39.7,18.5,28.20,SE,137,8.3,15.4,42,0.00,,OVC037,0.00,VWS V14.00,2013-02-10 22:30:00,
2013-02-10 16:35:00,39.6,18.4,28.20,SSE,150,8.3,15.4,42,0.00,,OVC037,0.00,VWS V14.00,2013-02-10 22:35:00,
2013-02-10 16:40:00,39.4,18.2,28.20,SE,133,8.7,25.7,42,0.00,,OVC037,0.00,VWS V14.00,2013-02-10 22:40:00,
2013-02-10 16:45:00,39.2,19.1,28.20,SSE,147,16.8,18.3,44,0.00,,OVC037,0.00,VWS V14.00,2013-02-10 22:45:00,
2013-02-10 16:50:00,39.0,20.0,28.20,SE,139,10.5,23.3,46,0.00,,OVC037,0.00,VWS V14.00,2013-02-10 22:50:00,
2013-02-10 16:55:00,38.7,20.7,28.23,SSE,149,12.3,18.3,48,0.00,,OVC037,0.00,VWS V14.00,2013-02-10 22:55:00,
2013-02-10 17:00:00,38.5,21.0,28.23,SSE,147,13.6,25.1,49,0.00,,-RA,0.00,VWS V14.00,2013-02-10 23:00:00,
2013-02-10 17:05:00,38.1,20.7,28.23,SSE,147,8.3,21.0,49,0.00,,-RA,0.00,VWS V14.00,2013-02-10 23:05:00,
2013-02-10 17:10:00,38.1,20.7,28.23,SE,141,13.6,22.4,49,0.00,,-RA,0.00,VWS V14.00,2013-02-10 23:10:00,
2013-02-10 17:15:00,38.1,21.1,28.23,SE,130,12.8,18.8,50,0.00,,-RA,0.00,VWS V14.00,2013-02-10 23:15:00,
2013-02-10 17:20:00,37.9,21.9,28.23,SE,137,10.1,10.1,52,0.00,,-RA,0.00,VWS V14.00,2013-02-10 23:20:00,
2013-02-10 17:25:00,37.6,22.0,28.23,SSE,165,14.5,20.6,53,0.00,,-RA,0.00,VWS V14.00,2013-02-10 23:25:00,
2013-02-10 17:30:00,37.4,22.3,28.23,SSE,149,12.8,20.6,54,0.00,,-RA,0.00,VWS V14.00,2013-02-10 23:30:00,
2013-02-10 17:35:00,37.2,22.6,28.23,ESE,117,13.2,19.2,55,0.00,,-RA,0.00,VWS V14.00,2013-02-10 23:35:00,
2013-02-10 17:40:00,37.0,22.8,28.23,SSE,153,6.3,19.2,56,0.00,,-RA,0.00,VWS V14.00,2013-02-10 23:40:00,
2013-02-10 17:45:00,36.9,23.1,28.23,SE,134,10.1,22.8,57,0.00,,OVC014,0.00,VWS V14.00,2013-02-10 23:45:00,
2013-02-10 17:50:00,37.0,23.2,28.23,SSE,148,11.0,22.8,57,0.00,,OVC014,0.00,VWS V14.00,2013-02-10 23:50:00,
2013-02-10 17:55:00,36.9,23.5,28.26,SE,128,8.7,20.1,58,0.00,,OVC014,0.00,VWS V14.00,2013-02-10 23:55:00,
2013-02-10 18:00:00,36.7,23.7,28.26,ESE,122,8.3,20.1,59,0.00,,OVC014,0.00,VWS V14.00,2013-02-11 00:00:00,
2013-02-10 18:05:00,36.7,24.1,28.26,ESE,118,11.9,17.0,60,0.00,,OVC014,0.00,VWS V14.00,2013-02-11 00:05:00,
2013-02-10 18:10:00,36.7,24.5,28.26,SSE,159,13.2,17.0,61,0.00,,OVC014,0.00,VWS V14.00,2013-02-11 00:10:00,
2013-02-10 18:15:00,36.7,24.9,28.26,SE,137,11.0,17.4,62,0.00,,OVC014,0.00,VWS V14.00,2013-02-11 00:15:00,
2013-02-10 18:20:00,36.7,25.7,28.26,SE,144,8.1,21.9,64,0.00,,OVC014,0.00,VWS V14.00,2013-02-11 00:20:00,
2013-02-10 18:25:00,36.5,25.9,28.26,SSE,162,10.5,15.4,65,0.00,,OVC014,0.00,VWS V14.00,2013-02-11 00:25:00,
2013-02-10 18:30:00,36.3,26.1,28.26,ESE,119,16.3,16.3,66,0.00,,OVC014,0.00,VWS V14.00,2013-02-11 00:30:00,
2013-02-10 18:35:00,36.3,26.8,28.26,ESE,115,10.5,16.3,68,0.00,,OVC014,0.00,VWS V14.00,2013-02-11 00:35:00,
2013-02-10 18:40:00,36.5,27.3,28.26,SSE,152,3.6,16.3,69,0.00,,OVC014,0.00,VWS V14.00,2013-02-11 00:40:00,
2013-02-10 18:45:00,36.7,27.5,28.26,SSE,158,8.1,13.2,69,0.00,,OVC014,0.00,VWS V14.00,2013-02-11 00:45:00,
2013-02-10 18:50:00,36.7,27.1,28.26,SSE,163,7.6,14.5,68,0.00,,OVC014,0.00,VWS V14.00,2013-02-11 00:50:00,
2013-02-10 18:55:00,36.9,26.2,28.29,SE,137,8.1,11.4,65,0.00,,OVC014,0.00,VWS V14.00,2013-02-11 00:55:00,
2013-02-10 19:00:00,36.7,24.9,28.29,South,179,10.5,12.3,62,0.00,,-RA,0.00,VWS V14.00,2013-02-11 01:00:00,
2013-02-10 19:05:00,36.5,23.1,28.29,SSE,162,8.3,15.0,58,0.00,,-RA,0.00,VWS V14.00,2013-02-11 01:05:00,
2013-02-10 19:10:00,36.1,20.7,28.29,SSE,150,8.3,15.4,53,0.00,,-RA,0.00,VWS V14.00,2013-02-11 01:10:00,
2013-02-10 19:15:00,36.0,19.6,28.29,SSE,160,6.3,16.3,51,0.00,,-RA,0.00,VWS V14.00,2013-02-11 01:15:00,
2013-02-10 19:20:00,35.8,19.9,28.29,SE,144,6.3,16.3,52,0.00,,-RA,0.00,VWS V14.00,2013-02-11 01:20:00,
2013-02-10 19:25:00,35.4,19.1,28.32,SSE,149,3.1,14.1,51,0.00,,-RA,0.00,VWS V14.00,2013-02-11 01:25:00,
2013-02-10 19:30:00,35.1,18.3,28.32,SSE,153,3.6,17.9,50,0.00,,-RA,0.00,VWS V14.00,2013-02-11 01:30:00,
2013-02-10 19:35:00,34.9,18.1,28.32,SSE,157,5.4,11.9,50,0.00,,-RA,0.00,VWS V14.00,2013-02-11 01:35:00,
2013-02-10 19:40:00,34.9,18.1,28.32,SSE,163,4.0,15.9,50,0.00,,-RA,0.00,VWS V14.00,2013-02-11 01:40:00,
2013-02-10 19:45:00,34.7,18.0,28.32,SSE,167,5.8,10.5,50,0.00,,-RA,0.00,VWS V14.00,2013-02-11 01:45:00,
2013-02-10 19:50:00,34.5,17.8,28.32,SSE,147,10.5,14.5,50,0.00,,-RA,0.00,VWS V14.00,2013-02-11 01:50:00,
2013-02-10 19:55:00,34.3,17.6,28.32,SSE,161,7.6,10.1,50,0.00,,-RA,0.00,VWS V14.00,2013-02-11 01:55:00,
2013-02-10 20:00:00,34.2,17.0,28.32,SSE,168,8.3,11.0,49,0.00,,,0.00,VWS V14.00,2013-02-11 02:00:00,
2013-02-10 20:05:00,34.2,17.0,28.32,SSE,153,5.8,9.6,49,0.00,,,0.00,VWS V14.00,2013-02-11 02:05:00,
2013-02-10 20:10:00,34.0,15.9,28.35,South,185,5.8,13.2,47,0.00,,,0.00,VWS V14.00,2013-02-11 02:10:00,
2013-02-10 20:15:00,34.0,15.4,28.35,South,176,6.3,17.0,46,0.00,,,0.00,VWS V14.00,2013-02-11 02:15:00,
2013-02-10 20:20:00,34.0,15.4,28.35,SSE,164,5.4,17.0,46,0.00,,,0.00,VWS V14.00,2013-02-11 02:20:00,
2013-02-10 20:25:00,34.0,14.9,28.35,SE,140,3.6,12.8,45,0.00,,,0.00,VWS V14.00,2013-02-11 02:25:00,
2013-02-10 20:30:00,33.8,15.2,28.35,South,172,8.1,12.8,46,0.00,,,0.00,VWS V14.00,2013-02-11 02:30:00,
2013-02-10 20:35:00,33.8,14.7,28.35,SE,137,11.9,12.8,45,0.00,,,0.00,VWS V14.00,2013-02-11 02:35:00,
2013-02-10 20:40:00,33.8,14.2,28.35,SSE,157,5.8,13.6,44,0.00,,,0.00,VWS V14.00,2013-02-11 02:40:00,
2013-02-10 20:45:00,33.6,14.6,28.35,South,169,3.6,13.6,45,0.00,,,0.00,VWS V14.00,2013-02-11 02:45:00,
2013-02-10 20:50:00,33.6,14.1,28.35,SSE,166,3.1,13.6,44,0.00,,,0.00,VWS V14.00,2013-02-11 02:50:00,
2013-02-10 20:55:00,33.4,13.9,28.38,SSE,150,10.5,13.6,44,0.00,,,0.00,VWS V14.00,2013-02-11 02:55:00,
2013-02-10 21:00:00,33.4,13.9,28.38,South,173,4.0,13.6,44,0.00,,,0.00,VWS V14.00,2013-02-11 03:00:00,
2013-02-10 21:05:00,33.3,12.7,28.38,South,170,8.3,11.9,42,0.00,,,0.00,VWS V14.00,2013-02-11 03:05:00,
2013-02-10 21:10:00,33.3,12.7,28.38,SSE,157,4.9,12.8,42,0.00,,,0.00,VWS V14.00,2013-02-11 03:10:00,
2013-02-10 21:15:00,33.3,12.7,28.38,SSE,149,8.7,10.5,42,0.00,,,0.00,VWS V14.00,2013-02-11 03:15:00,
2013-02-10 21:20:00,33.3,12.7,28.38,SSW,195,6.3,13.6,42,0.00,,,0.00,VWS V14.00,2013-02-11 03:20:00,
2013-02-10 21:25:00,33.1,12.5,28.38,SE,145,7.6,14.5,42,0.00,,,0.00,VWS V14.00,2013-02-11 03:25:00,
2013-02-10 21:30:00,33.1,12.5,28.38,SSE,157,5.8,15.4,42,0.00,,,0.00,VWS V14.00,2013-02-11 03:30:00,
2013-02-10 21:35:00,32.9,12.3,28.38,SSE,168,6.3,15.4,42,0.00,,,0.00,VWS V14.00,2013-02-11 03:35:00,
2013-02-10 21:40:00,32.9,12.3,28.41,SSE,159,8.1,15.4,42,0.00,,,0.00,VWS V14.00,2013-02-11 03:40:00,
2013-02-10 21:45:00,32.9,11.8,28.41,SE,145,5.8,10.1,41,0.00,,,0.00,VWS V14.00,2013-02-11 03:45:00,
2013-02-10 21:50:00,32.7,11.6,28.41,SW,224,8.7,13.2,41,0.00,,,0.00,VWS V14.00,2013-02-11 03:50:00,
2013-02-10 21:55:00,32.9,11.8,28.41,South,171,5.8,13.2,41,0.00,,,0.00,VWS V14.00,2013-02-11 03:55:00,
2013-02-10 22:00:00,32.7,11.6,28.41,SSE,153,3.1,13.2,41,0.00,,OVC024,0.00,VWS V14.00,2013-02-11 04:00:00,
2013-02-10 22:05:00,32.7,11.6,28.41,SSE,159,8.3,15.0,41,0.00,,OVC024,0.00,VWS V14.00,2013-02-11 04:05:00,
2013-02-10 22:10:00,32.7,11.6,28.41,South,176,4.9,15.0,41,0.00,,OVC024,0.00,VWS V14.00,2013-02-11 04:10:00,
2013-02-10 22:15:00,32.7,11.6,28.41,South,184,3.6,11.0,41,0.00,,OVC024,0.00,VWS V14.00,2013-02-11 04:15:00,
2013-02-10 22:20:00,32.7,11.1,28.41,SE,135,6.3,12.8,40,0.00,,OVC024,0.00,VWS V14.00,2013-02-11 04:20:00,
2013-02-10 22:25:00,32.7,11.1,28.41,South,186,3.1,10.1,40,0.00,,OVC024,0.00,VWS V14.00,2013-02-11 04:25:00,
2013-02-10 22:30:00,32.7,11.1,28.44,SW,218,10.5,10.5,40,0.00,,OVC024,0.00,VWS V14.00,2013-02-11 04:30:00,
2013-02-10 22:35:00,32.7,11.1,28.44,South,170,5.8,19.2,40,0.00,,OVC024,0.00,VWS V14.00,2013-02-11 04:35:00,
2013-02-10 22:40:00,32.5,10.9,28.44,SE,144,8.1,19.2,40,0.00,,OVC024,0.00,VWS V14.00,2013-02-11 04:40:00,
2013-02-10 22:44:00,32.5,9.8,28.44,SSW,196,7.6,13.2,38,0.00,,OVC024,0.00,VWS V14.00,2013-02-11 04:44:00,
2013-02-10 22:49:00,32.4,10.2,28.44,SSE,162,11.0,21.5,39,0.00,,OVC024,0.00,VWS V14.00,2013-02-11 04:49:00,
2013-02-10 22:54:00,32.2,8.9,28.44,South,185,11.0,11.0,37,0.00,,OVC024,0.00,VWS V14.00,2013-02-11 04:54:00,
2013-02-10 22:59:00,32.2,9.4,28.44,SSW,212,14.5,21.0,38,0.00,,,0.00,VWS V14.00,2013-02-11 04:59:00,
2013-02-10 23:00:00,32.2,9.4,28.44,SSW,212,14.5,21.0,38,0.00,,,0.00,VWS V14.00,2013-02-11 05:00:00,
2013-02-10 23:05:00,32.2,9.4,28.44,SSW,199,4.5,17.0,38,0.00,,,0.00,VWS V14.00,2013-02-11 05:05:00,
2013-02-10 23:10:00,32.2,9.4,28.44,SSW,198,8.1,17.0,38,0.00,,,0.00,VWS V14.00,2013-02-11 05:10:00,
2013-02-10 23:15:00,32.0,9.9,28.47,South,189,5.4,10.5,39,0.00,,,0.00,VWS V14.00,2013-02-11 05:15:00,
2013-02-10 23:20:00,32.2,9.4,28.47,ESE,119,4.0,17.0,38,0.00,,,0.00,VWS V14.00,2013-02-11 05:20:00,
2013-02-10 23:25:00,32.0,8.7,28.47,SSE,157,5.4,15.4,37,0.00,,,0.00,VWS V14.00,2013-02-11 05:25:00,
2013-02-10 23:30:00,32.0,8.7,28.47,SSW,205,14.1,15.4,37,0.00,,,0.00,VWS V14.00,2013-02-11 05:30:00,
2013-02-10 23:35:00,31.8,8.5,28.47,SSW,192,4.0,11.0,37,0.00,,,0.00,VWS V14.00,2013-02-11 05:35:00,
2013-02-10 23:40:00,31.8,9.1,28.47,SSE,166,3.6,11.0,38,0.00,,,0.00,VWS V14.00,2013-02-11 05:40:00,
2013-02-10 23:45:00,31.8,9.1,28.47,SSW,209,7.6,8.1,38,0.00,,,0.00,VWS V14.00,2013-02-11 05:45:00,
2013-02-10 23:50:00,31.8,9.7,28.47,SSE,164,5.4,12.3,39,0.00,,,0.00,VWS V14.00,2013-02-11 05:50:00,
2013-02-10 23:55:00,31.8,9.1,28.47,South,181,3.1,15.4,38,0.00,,,0.00,VWS V14.00,2013-02-11 05:55:00,